Location: Unspecified
(0.0000°N, 0.0000°E)
Time: 15:03:11
(UTC+00:00)

Altair - Visible Passes

Search period start: 12 April 2021 00:00
Search period end: 22 April 2021 00:00
Orbit: 1501 x 1683 km, 47.2° (Epoch: 11 April)

Date Brightness Start Highest point End Pass type
(mag) Time Alt. Az. Time Alt. Az. Time Alt. Az.
12 Apr 8.1 04:02:10 20° SSW 04:09:24 54° SE 04:18:58 10° NE visible
12 Apr 9.6 18:59:11 10° WSW 19:03:32 14° SW 19:07:57 10° SSW visible
13 Apr 8.2 03:39:21 30° S 03:44:11 48° SE 03:53:36 10° ENE visible
13 Apr 9.6 18:33:00 10° W 18:38:14 16° SW 18:43:35 10° S visible
14 Apr 8.4 03:16:29 38° SSE 03:18:57 43° SE 03:28:12 10° ENE visible
14 Apr 8.0 05:14:35 11° WSW 05:23:37 43° NW 05:32:46 10° NNE visible
15 Apr 8.5 02:53:33 39° SE 02:53:43 39° SE 03:02:45 10° ENE visible
15 Apr 7.9 04:51:38 21° WSW 04:58:25 48° NW 05:07:47 10° NNE visible
16 Apr 8.8 02:30:32 32° ESE 02:30:32 32° ESE 02:37:14 10° ENE visible
16 Apr 7.8 04:28:37 33° WSW 04:33:12 54° NW 04:42:47 10° NNE visible
17 Apr 9.2 02:07:26 23° E 02:07:26 23° E 02:11:40 10° ENE visible
17 Apr 7.6 04:05:30 49° W 04:08:00 60° NW 04:17:44 10° NNE visible
18 Apr 9.6 01:44:14 15° E 01:44:14 15° E 01:46:02 10° ENE visible
18 Apr 7.5 03:42:18 67° WNW 03:42:48 67° NW 03:52:40 10° NNE visible
19 Apr 7.7 03:19:01 66° N 03:19:01 66° N 03:27:34 10° NNE visible
19 Apr 9.1 05:18:04 10° WNW 05:22:43 14° NW 05:27:20 10° NNW visible
20 Apr 8.1 02:55:40 50° NNE 02:55:40 50° NNE 03:02:26 10° NE visible
20 Apr 9.0 04:53:43 13° WNW 04:57:25 16° NW 05:03:02 10° N visible
21 Apr 8.6 02:32:12 36° NE 02:32:12 36° NE 02:37:15 10° NE visible
21 Apr 8.8 04:30:15 18° WNW 04:32:07 19° NW 04:38:33 10° N visible
